This demonstration page uses our WeatherBlox Daily Observations layout. Learn more.

Left ArrowRight Arrow

40.92945, -100.16068

Hourly Observations for October 21, 2016

Temp ( °F °C ) Dew Point ( °F °C ) Humidity (%) Winds ( mph kmh ) Pressure ( in mb ) Visibility ( mi km ) Precip ( " mm )
12:15 am 00:15 Clear 39 3.8 33 0.4 79 79 SSE 5 7 30.33 1027 10 16 N/A
12:35 am 00:35 Clear 40 4.4 33 0.7 77 77 SE 5 7 30.33 1027 10 16 N/A
12:55 am 00:55 Clear 39 4.1 33 0.3 77 77 SSE 6 9 30.33 1027 10 16 N/A
1:15 am 01:15 Clear 40 4.6 33 0.8 77 77 SSE 6 9 30.30 1026 10 16 N/A
1:35 am 01:35 Clear 41 5 34 1.3 77 77 SE 3 6 30.30 1026 10 16 N/A
1:55 am 01:55 Clear 39 4 34 0.9 80 80 SSE 5 7 30.30 1026 10 16 N/A
2:15 am 02:15 Clear 39 4 34 1.1 82 82 SSE 5 7 30.30 1026 10 16 N/A
2:35 am 02:35 Clear 41 4.8 35 1.4 79 79 SSE 6 9 30.30 1026 10 16 N/A
2:55 am 02:55 Clear 40 4.7 34 1.2 78 78 S 6 9 30.30 1026 10 16 N/A
3:15 am 03:15 Clear 39 4.1 34 1 80 80 S 6 9 30.30 1026 10 16 N/A
3:35 am 03:35 Clear 39 3.9 34 1 82 82 S 7 11 30.27 1025 10 16 N/A
3:55 am 03:55 Clear 39 4.1 34 1.1 81 81 S 5 7 30.27 1025 10 16 N/A
4:15 am 04:15 Clear 41 4.8 34 1.3 78 78 S 3 6 30.27 1025 10 16 N/A
4:35 am 04:35 Clear 42 5.5 35 1.5 76 76 SSE 3 6 30.24 1024 10 16 N/A
4:55 am 04:55 Clear 42 5.5 36 2 78 78 S 7 11 30.21 1023 10 16 N/A
5:15 am 05:15 Clear 44 6.9 37 2.6 74 74 SSW 12 19 30.21 1023 10 16 N/A
5:35 am 05:35 Clear 45 7.2 37 2.5 72 72 SSW 14 22 30.21 1023 10 16 N/A
5:55 am 05:55 Clear 45 7.1 36 2.3 72 72 SSW 12 19 30.21 1023 10 16 N/A
6:15 am 06:15 Clear 45 7.2 36 2.3 71 71 SSW 10 17 30.21 1023 10 16 N/A
6:35 am 06:35 Clear 45 7.2 36 2.2 71 71 SSW 12 19 30.21 1023 10 16 N/A
6:55 am 06:55 Clear 45 7 36 2.1 71 71 SSW 10 17 30.21 1023 10 16 N/A
7:15 am 07:15 Clear 45 7 36 2.1 71 71 SW 10 17 30.21 1023 10 16 N/A
7:35 am 07:35 Clear 44 6.5 36 2.2 74 74 SSW 10 17 30.18 1022 10 16 N/A
7:55 am 07:55 Clear 45 7 36 2.1 71 71 SSW 13 20 30.18 1022 10 16 N/A
8:15 am 08:15 Sunny 44 6.7 36 2.2 73 73 SW 10 17 30.18 1022 10 16 N/A
8:35 am 08:35 Sunny 45 7.3 37 2.5 72 72 SSW 16 26 30.18 1022 10 16 N/A
8:55 am 08:55 Sunny 47 8.1 37 2.7 69 69 SSW 15 24 30.15 1021 10 16 N/A
9:15 am 09:15 Sunny 47 8.5 37 2.8 68 68 SSW 15 24 30.15 1021 10 16 N/A
9:35 am 09:35 Sunny 49 9.5 37 3 64 64 SSW 17 28 30.15 1021 10 16 N/A
9:55 am 09:55 Sunny 51 10.6 37 2.8 59 59 SSW 14 22 30.15 1021 10 16 N/A
10:15 am 10:15 Sunny 52 11.1 37 2.6 56 56 SSW 18 30 30.09 1019 10 16 N/A
10:35 am 10:35 Sunny 53 11.5 37 3 56 56 SSW 13 20 30.09 1019 10 16 N/A
10:55 am 10:55 Sunny 55 12.8 36 2.4 49 49 SW 14 22 30.09 1019 10 16 N/A
11:15 am 11:15 Sunny 56 13.3 35 1.7 46 46 SSW 14 22 30.09 1019 10 16 N/A
11:35 am 11:35 Sunny 56 13.5 36 2.1 46 46 SW 15 24 30.09 1019 10 16 N/A
11:55 am 11:55 Sunny 57 13.8 36 2.3 46 46 SSW 15 24 30.03 1017 10 16 N/A
12:15 pm 12:15 Sunny 57 14 36 2.2 45 45 SSW 16 26 30.03 1017 10 16 N/A
12:35 pm 12:35 Sunny 59 15 37 2.5 43 43 SSW 14 22 30.03 1017 10 16 N/A
12:55 pm 12:55 Sunny 60 15.8 35 1.8 39 39 SSW 12 19 30.00 1016 10 16 N/A
1:15 pm 13:15 Sunny 62 16.7 35 1.9 37 37 SSW 12 19 30.00 1016 10 16 N/A
1:35 pm 13:35 Sunny 63 17.2 34 1.3 34 34 SW 10 17 29.97 1015 10 16 N/A
1:55 pm 13:55 Sunny 64 17.6 34 1.3 34 34 SSW 9 15 29.97 1015 10 16 N/A
2:15 pm 14:15 Sunny 65 18.3 34 1.1 32 32 WSW 7 11 29.97 1015 10 16 N/A
2:35 pm 14:35 Sunny 65 18.5 33 0.5 30 30 WSW 6 9 29.97 1015 10 16 N/A
2:55 pm 14:55 Sunny 66 18.7 33 0.4 29 29 SW 7 11 29.97 1015 10 16 N/A
3:15 pm 15:15 Sunny 67 19.6 33 0.5 28 28 SW 6 9 29.97 1015 10 16 N/A
3:35 pm 15:35 Sunny 68 20 32 undefined 26 26 WSW 6 9 29.97 1015 10 16 N/A
3:55 pm 15:55 Sunny 67 19.5 32 0.1 27 27 W 7 11 29.97 1015 10 16 N/A
4:15 pm 16:15 Sunny 67 19.6 32 0.1 27 27 WNW 5 7 29.97 1015 10 16 N/A
4:35 pm 16:35 Sunny 68 20 33 0.3 27 27 W 3 6 29.97 1015 10 16 N/A
4:55 pm 16:55 Sunny 68 20.2 33 0.4 27 27 SW 3 6 29.94 1014 10 16 N/A
5:15 pm 17:15 Sunny 70 21 32 -0.2 24 24 SW 3 6 29.91 1013 10 16 N/A
5:35 pm 17:35 Sunny 69 20.4 33 0.7 27 27 N N/A 29.94 1014 10 16 N/A
5:55 pm 17:55 Sunny 69 20.8 32 0.1 25 25 N N/A 29.94 1014 10 16 N/A
6:15 pm 18:15 Sunny 68 20.1 31 -0.3 26 26 N N/A 29.97 1015 10 16 N/A
6:35 pm 18:35 Sunny 62 16.7 37 2.9 40 40 N N/A 30.00 1016 10 16 N/A
6:55 pm 18:55 Clear 62 16.5 34 1.1 36 36 N N/A 30.00 1016 10 16 N/A
7:15 pm 19:15 Clear 58 14.7 35 1.6 41 41 N N/A 30.00 1016 10 16 N/A
7:35 pm 19:35 Clear 56 13.5 34 1 43 43 ESE 5 7 30.00 1016 10 16 N/A
7:55 pm 19:55 Clear 55 12.6 34 1.2 46 46 SE 3 6 30.03 1017 10 16 N/A
8:15 pm 20:15 Clear 55 12.8 34 1 45 45 SSE 3 6 30.03 1017 10 16 N/A
8:35 pm 20:35 Clear 49 9.6 34 1 55 55 N N/A 30.06 1018 7 11 N/A
8:55 pm 20:55 Clear 47 8.4 34 1 60 60 N N/A 30.06 1018 10 16 N/A
9:15 pm 21:15 Clear 46 7.8 34 1 62 62 N N/A 30.06 1018 10 16 N/A
9:35 pm 21:35 Clear 45 7.4 34 0.9 64 64 N N/A 30.06 1018 10 16 N/A
9:55 pm 21:55 Clear 45 7 33 0.6 64 64 N N/A 30.09 1019 10 16 N/A
10:15 pm 22:15 Clear 44 6.4 33 0.6 67 67 N N/A 30.09 1019 10 16 N/A
10:35 pm 22:35 Clear 42 5.7 33 0.4 69 69 N N/A 30.09 1019 10 16 N/A
10:55 pm 22:55 Clear 42 5.5 32 0.2 69 69 N 3 6 30.09 1019 10 16 N/A
11:15 pm 23:15 Clear 40 4.5 32 0.2 74 74 N 3 6 30.09 1019 10 16 N/A
11:35 pm 23:35 Clear 39 4 32 undefined 75 75 NNW 3 6 30.09 1019 10 16 N/A
11:55 pm 23:55 Clear 39 3.9 32 undefined 76 76 N N/A 30.12 1020 10 16 N/A

Powered by AerisWeather